Location: Bald Rock
(37.3738°N, 119.9354°W)
Time: 21:39:22
(UTC+00:00)

Cosmos 1339 Rocket - Pass Details

Date: 08 September 2024
Orbit: 942 x 1004 km, 82.9° (Epoch: 12 October)

Event Time Altitude Azimuth Distance (km) Brightness Sun altitude
Exits shadow 12:11:33 - 191° (SSW) 3,250 6.9 -17.2°
Reaches altitude 10° 12:13:07 10° 193° (SSW) 2,659 6.5 -16.9°
Maximum altitude 12:19:09 72° 277° (W) 990 4.4 -15.7°
Drops below altitude 10° 12:25:14 10° 2° (N) 2,666 7.1 -14.6°
Sets 12:27:44 0° 5° (N) 3,617 7.8 -14.1°
